Location: Amherst
(42.5000°N, 72.5000°W)
Time: 17:24:41
(UTC-04:00)

ISS - Pass Details

Date: 17 July 2018
Orbit: 402 x 408 km, 51.6° (Epoch: 16 July)

Event Time Altitude Azimuth Distance (km) Brightness Sun altitude
Rises 03:26:30 0° 305° (NW) 2,331 0.0 -17.5°
Reaches altitude 10° 03:28:56 10° 323° (NW) 1,470 -0.8 -17.2°
Maximum altitude 03:31:30 21° 14° (NNE) 989 -1.1 -16.9°
Drops below altitude 10° 03:34:05 10° 65° (ENE) 1,469 0.0 -16.6°
Sets 03:36:31 0° 83° (E) 2,328 0.8 -16.4°
